Regional Weather Roundup
Issued by NWS

Home | Current Version | Previous Version | Text Only | Print | Product List | Glossary On
Versions: 1 2 3 4 5 6 7 8 9 10 11 12 13 14 15 16 17 18 19 20 21 22 23 24 25 26 27 28 29 30 31 32 33 34 35 36 37 38 39 40 41 42 43 44 45 46 47 48 49 50
000
ASUS43 KOAX 300410
RWRNE

WEATHER ROUNDUP FOR NEBRASKA
NATIONAL WEATHER SERVICE OMAHA NE
1100 PM CDT MON MAY 29 2017

NOTES: SATELLITE DATA IS BEING USED TO AUGMENT CLOUD COVER ABOVE
       12000 FEET.
       "FAIR" INDICATES FEW OR NO CLOUDS BELOW 12,000 FEET WITH NO
       SIGNIFICANT WEATHER AND/OR OBSTRUCTIONS TO VISIBILITY.

  * THESE STATIONS DO NOT REPORT WEATHER SUCH AS RAIN...SNOW OR FOG.

NEZ001>004-019>022-054>056-300500-
NEBRASKA PANHANDLE

CITY           SKY/WX    TMP DP  RH WIND       PRES   REMARKS
SCOTTSBLUFF    CLEAR     53  38  56 N3        30.17R
ALLIANCE       CLEAR     49  36  61 N5        30.14R
CHADRON        CLEAR     53  41  63 E3        30.14R
GORDON         FAIR      46  38  74 W3        30.14R
KIMBALL        CLEAR     53  43  67 W3        30.22R
SIDNEY         CLEAR     45  38  76 N3        30.19R
$$

NEZ057>060-069>072-079>082-300500-
SOUTHWEST NEBRASKA

CITY           SKY/WX    TMP DP  RH WIND       PRES   REMARKS
NORTH PLATTE   CLEAR     48  41  76 CALM      30.12R
IMPERIAL       PTCLDY    58  40  51 NW5       30.14R
LEXINGTON      CLEAR     56  41  58 CALM      30.10R
MCCOOK         CLOUDY    59  42  53 CALM      30.11R
OGALLALA       CLEAR     54  38  54 CALM      30.14R
$$

NEZ005>010-023>029-035>040-094-300500-
NORTH CENTRAL NEBRASKA

CITY           SKY/WX    TMP DP  RH WIND       PRES   REMARKS
VALENTINE      CLEAR     51  38  60 W8        30.09R
AINSWORTH      CLEAR     54  38  55 W6        30.09R
BROKEN BOW     CLEAR     54  39  57 CALM      30.09R
O`NEILL        CLEAR     56  37  49 W6        30.06R
ORD            CLEAR     48  39  71 SW7       30.07R
THEDFORD       CLEAR     54  38  55 W3        30.11R
$$

NEZ041-046>049-061>064-073>077-083>087-300500-
SOUTH CENTRAL NEBRASKA

CITY           SKY/WX    TMP DP  RH WIND       PRES   REMARKS
GRAND ISLAND   CLEAR     58  40  51 CALM      30.08R
AURORA         CLEAR     59  37  44 CALM      30.08R
HASTINGS       CLEAR     61  40  45 CALM      30.09R
HEBRON         CLEAR     57  45  62 CALM      30.07R
HOLDREGE       CLEAR     59  38  46 CALM      30.09R
KEARNEY *      CLEAR     57  37  47 CALM      30.10R
YORK           CLEAR     59  36  41 CALM      30.07R
$$

NEZ011>018-030>034-042>045-300500-
NORTHEAST NEBRASKA

CITY           SKY/WX    TMP DP  RH WIND       PRES   REMARKS
NORFOLK        CLEAR     48  42  80 S6        30.03R
ALBION         CLEAR     51  40  67 NW3       30.06R
BLAIR          CLEAR     61  42  49 N5        30.03S
FREMONT        CLEAR     57  42  57 CALM      30.04S
TEKAMAH        CLEAR     54  39  57 W3        30.03R
WAYNE          CLEAR     48  43  82 SW5       30.03S
$$

NEZ050>053-065>068-078-088>093-300500-
SOUTHEAST NEBRASKA

CITY           SKY/WX    TMP DP  RH WIND       PRES   REMARKS
LINCOLN        CLEAR     58  42  55 CALM      30.06R
OMAHA EPPLEY   CLEAR     61  43  51 CALM      30.03R
BEATRICE       CLEAR     57  42  56 CALM      30.06R
NEBRASKA CITY  CLEAR     62  35  36 N6        30.05R
PLATTSMOUTH    CLEAR     62  41  46 CALM      30.04S
$$

NEZ044-045-051>053-067-300500-
OMAHA AREA

CITY           SKY/WX    TMP DP  RH WIND       PRES   REMARKS
OMAHA EPPLEY   CLEAR     61  43  51 CALM      30.03R
BLAIR          CLEAR     61  42  49 N5        30.03S
FREMONT        CLEAR     57  42  57 CALM      30.04S
MILLARD        CLEAR     60  46  60 CALM      30.03S
OFFUTT AFB     CLEAR     55  46  71 CALM      30.03R
PLATTSMOUTH    CLEAR     62  41  46 CALM      30.04S
WAHOO          FAIR      59  45  60 CALM      30.04S
$$




USA.gov is the U.S. government's official web portal to all federal, state and local government web resources and services.